{"data":{"norad_id":56138,"intl_designator":"2023-046AY","name":"STARLINK-4774","alt_names":[],"object_type":"PAYLOAD","status":"ACTIVE","operator":null,"country":"US","launch_date":"2023-03-29","launch_site_code":"AFETR","launch_vehicle":null,"mission":null,"orbit_class":"UNKNOWN","rcs_meters":null,"size_class":null,"mass_kg":null,"dimensions":null,"purposes":["comms"],"wikipedia_slug":null,"has_3d_model":false,"image_url":null,"decayed_at":null,"tle_current":{"epoch":"2026-05-25T03:56:03.280704Z","epoch_age_seconds":75077,"freshness":"FRESH","line1":"1 56138U 23046AY  26145.16392686 -.00000153  00000+0  39683-5 0  9990","line2":"2 56138  43.0043  75.2814 0001017 267.6799  92.3937 15.27582180173891","mean_motion":15.2758218,"eccentricity":0.0001017,"inclination_deg":43.0043,"raan_deg":75.2814,"arg_perigee_deg":267.6799,"mean_anomaly_deg":92.3937,"bstar":3.9683e-6,"rev_number":17389,"period_min":94.266614186348,"perigee_km":482.34478638106,"apogee_km":483.74035030527,"semimajor_km":6861.1795683432,"source":"CELESTRAK","updated_at":"2026-05-25T13:38:17.962131Z"}}}